Regional Weather Roundup
Issued by NWS New Orleans/Baton Rouge, LA

Home | Current Version | Previous Version | Text Only | Print | Product List | Glossary Off
Versions: 1 2 3 4 5 6 7 8 9 10 11 12 13 14 15 16 17 18 19 20 21 22 23 24 25 26 27 28 29 30 31 32 33 34 35 36 37 38 39 40 41 42 43 44 45 46 47 48 49 50

830
ASUS44 KLIX 221810
RWRLIX
NEW ORLEANS REGIONAL WEATHER ROUNDUP
NATIONAL WEATHER SERVICE NEW ORLEANS LA
100 PM CDT FRI AUG 22 2014

NOTE: "FAIR" INDICATES FEW OR NO CLOUDS BELOW 12,000 FEET WITH NO
      SIGNIFICANT WEATHER AND/OR OBSTRUCTIONS TO VISIBILITY.
      SKY/WX - SKY CONDITION AND SIGNIFICANT WEATHER.
      TMP - AIR TEMPERATURE.     DP    - DEWPOINT TEMPERATURE.
      RH  - RELATIVE HUMIDITY.   PRES  - PRESSURE.
      HI  - HEAT INDEX.          WCI   - WIND CHILL INDEX.

*  THESE STATIONS ARE NOT NWS OR FAA STATIONS AND ARE NOT UNDER
   NWS QUALITY CONTROL.

LAZ038-040-048-061>063-065>067-069-221900-
SOUTHEAST LOUISIANA

CITY           SKY/WX    TMP DP  RH WIND       PRES   REMARKS
N.O. AUDUBON     N/A     93  76  57 MISG        N/A  HX 105
6HR MIN TEMP:  78; 6HR MAX TEMP:  94;

N.O. INTL ARPT MOSUNNY   91  73  55 NE6       30.11F HX  99
6HR MIN TEMP:  75; 6HR MAX TEMP:  91;

N.O. LAKEFRONT SUNNY     87  75  67 W5        30.12F HX  96
6HR MIN TEMP:  81; 6HR MAX TEMP:  88;

N.O. DOWNTOWN*   N/A     90  72  55 CALM      30.11F HX  96
6HR MIN TEMP:  81; 6HR MAX TEMP:  91;

SLIDELL        SUNNY     93  74  53 N3        30.09F HX 103
6HR MIN TEMP:  73; 6HR MAX TEMP:  93;

BATON ROUGE    MOSUNNY   91  72  53 W3        30.10F HX  98
6HR MIN TEMP:  74; 6HR MAX TEMP:  92;

BOOTHVILLE     SUNNY     90  76  63 N6        30.12F HX 101
6HR MIN TEMP:  82; 6HR MAX TEMP:  90;

BELLE CHASSE   PTSUNNY   92  71  50 NE7       30.10F HX  98
6HR MIN TEMP:  73; 6HR MAX TEMP:  93;

BOGALUSA*        N/A     93  73  52 NE5       30.12F HX 101
6HR MIN TEMP:  74; 6HR MAX TEMP:  93;

GALLIANO*      NOT AVBL
NEW ROADS*       N/A     90  72  55 NW3       30.10F HX  96
6HR MIN TEMP:  72; 6HR MAX TEMP:  90;

GONZALES*      MOCLDY    91  77  63 CALM      30.10F HX 104
6HR MIN TEMP:  74; 6HR MAX TEMP:  91;

HAMMOND*       SUNNY     93  72  49 W5        30.12F HX 100
HOUMA*         MOSUNNY   93  70  46 N5        30.10F HX  99
PORT FOURCHON* PTCLDY    90  75  62 NE7       30.12F HX 100

$$

MSZ070-080>082-221900-
SOUTHERN MISSISSIPPI

CITY           SKY/WX    TMP DP  RH WIND       PRES   REMARKS
MCCOMB         PTSUNNY   91  72  53 N7        30.12F HX  98
6HR MIN TEMP:  73; 6HR MAX TEMP:  91;

GULFPORT       MOSUNNY   92  74  55 S7        30.08F HX 101
6HR MIN TEMP:  76; 6HR MAX TEMP:  95;

BILOXI         MOSUNNY   95  74  50 S6        30.09F HX 105
6HR MIN TEMP:  78; 6HR MAX TEMP:  95;

PASCAGOULA     SUNNY     94  71  47 NE6       30.09F HX 101
6HR MIN TEMP:  74; 6HR MAX TEMP:  95;

STENNIS ARPT*  MOSUNNY  N/A N/A N/A NE3       30.10F

$$

COASTAL OBSERVATIONS
LAKE AND NEARSHORE STATIONS

STATION/POSITION TIME  TEMP    WIND        PRES    WAVE
                       AIR SEA DIR/SP/G            HT/PER
                 (UTC) (F)     (DEG/KT/KT) (MB)    (FT/S)
PASCAGOULA       1800   91     180/  7/  8 1018.6
WAVELAND YACHT   1800   91      CALM  /  2 1018.7
GRAND ISLE       1800   88 89   30/  5/  7 1020.2
SOUTHWEST PASS   1800   93 88  360/  7/  9 1019.8
NEW CANAL        1800   85 85   20/  3/  5 1020.1
SHELL BEACH      1800   85 84   10/  5/  5 1019.4

OFFSHORE STATIONS

STATION/POSITION TIME  TEMP    WIND        PRES    WAVE
                       AIR SEA DIR/SP/G            HT/PER
                 (UTC) (F)     (DEG/KT/KT) (MB)    (FT/S)
64 S DAUPHIN ISL 1704   86 90  360/  8/  8 1019.7

$$




USA.gov is the U.S. government's official web portal to all federal, state and local government web resources and services.